• In Hungary
  • List of Countries
  • For 7 days
  • Water Temperature
  • Satellite Maps
  • Weather Map
  • News
  • Weather Widgets
  • user-avatar
    Login

    Hourly Weather Orta-Stal

    Today, 26 September, Wednesday

    Time Temperature Precipitation Wind Pressure Humidity
    00:00 +21°C° 0 mm 2 mps 721 mmHg 69%
    01:00 +21°C° 0 mm 2 mps 721 mmHg 70%
    02:00 +20°C° 0 mm 2 mps 721 mmHg 72%
    03:00 +21°C° 0 mm 3 mps 721 mmHg 71%
    04:00 +20°C° 0 mm 3 mps 722 mmHg 76%
    05:00 +20°C° 0 mm 3 mps 722 mmHg 82%
    06:00 +20°C° 0 mm 3 mps 722 mmHg 88%
    07:00 +21°C° 0.1 mm 4 mps 723 mmHg 83%
    08:00 +22°C° 0.1 mm 4 mps 723 mmHg 79%
    09:00 +22°C° 0 mm 5 mps 724 mmHg 75%
    10:00 +22°C° 0.1 mm 5 mps 724 mmHg 75%
    11:00 +21°C° 0.1 mm 5 mps 724 mmHg 75%
    12:00 +21°C° 0.1 mm 5 mps 724 mmHg 75%
    13:00 +20°C° 0.1 mm 5 mps 725 mmHg 76%
    14:00 +20°C° 0.1 mm 5 mps 725 mmHg 77%
    15:00 +19°C° 0.1 mm 5 mps 725 mmHg 78%
    16:00 +19°C° 0.2 mm 5 mps 725 mmHg 81%
    17:00 +18°C° 0.2 mm 4 mps 726 mmHg 85%
    18:00 +17°C° 0.2 mm 4 mps 726 mmHg 89%
    19:00 +15°C° 0.1 mm 4 mps 726 mmHg 89%
    20:00 +15°C° 0.1 mm 4 mps 727 mmHg 89%
    21:00 +16°C° 0.1 mm 3 mps 727 mmHg 89%
    22:00 +16°C° 0.1 mm 3 mps 727 mmHg 89%
    23:00 +16°C° 0.1 mm 3 mps 727 mmHg 90%

    Tomorrow, 27 September, Thursday

    Time Temperature Precipitation Wind Pressure Humidity
    00:00 +14°C° 0.1 mm 3 mps 727 mmHg 90%
    01:00 +14°C° 0.1 mm 3 mps 727 mmHg 90%
    02:00 +14°C° 0.1 mm 3 mps 727 mmHg 90%
    03:00 +14°C° 0.1 mm 3 mps 727 mmHg 91%
    04:00 +14°C° 0 mm 3 mps 728 mmHg 90%
    05:00 +14°C° 0 mm 3 mps 728 mmHg 90%
    06:00 +14°C° 0 mm 3 mps 728 mmHg 89%
    07:00 +16°C° 0.1 mm 3 mps 728 mmHg 84%
    08:00 +17°C° 0.1 mm 3 mps 728 mmHg 79%
    09:00 +18°C° 0.1 mm 4 mps 728 mmHg 74%
    10:00 +18°C° 0 mm 4 mps 728 mmHg 73%
    11:00 +18°C° 0 mm 4 mps 728 mmHg 72%
    12:00 +19°C° 0 mm 4 mps 728 mmHg 71%
    13:00 +19°C° 0 mm 4 mps 728 mmHg 72%
    14:00 +19°C° 0 mm 3 mps 728 mmHg 73%
    15:00 +18°C° 0 mm 3 mps 728 mmHg 74%
    16:00 +18°C° 0 mm 3 mps 728 mmHg 79%
    17:00 +17°C° 0 mm 2 mps 728 mmHg 84%
    18:00 +16°C° 0 mm 2 mps 728 mmHg 89%
    19:00 +16°C° 0 mm 2 mps 728 mmHg 89%
    20:00 +16°C° 0 mm 1 mps 728 mmHg 89%
    21:00 +15°C° 0 mm 1 mps 728 mmHg 89%
    22:00 +15°C° 0 mm 1 mps 728 mmHg 88%
    23:00 +15°C° 0 mm 1 mps 728 mmHg 88%

    Day after tomorrow, 28 September, Friday

    Time Temperature Precipitation Wind Pressure Humidity
    00:00 +15°C° 0 mm 1 mps 728 mmHg 87%
    01:00 +15°C° 0 mm 1 mps 728 mmHg 86%
    02:00 +15°C° 0 mm 1 mps 728 mmHg 86%
    03:00 +15°C° 0 mm 1 mps 728 mmHg 85%
    04:00 +15°C° 0 mm 1 mps 728 mmHg 84%
    05:00 +15°C° 0 mm 1 mps 728 mmHg 83%
    06:00 +15°C° 0 mm 1 mps 728 mmHg 81%
    07:00 +18°C° 0 mm 1 mps 728 mmHg 75%
    08:00 +19°C° 0 mm 2 mps 729 mmHg 69%
    09:00 +21°C° 0 mm 2 mps 729 mmHg 63%
    10:00 +21°C° 0 mm 3 mps 729 mmHg 63%
    11:00 +22°C° 0 mm 3 mps 729 mmHg 63%
    12:00 +22°C° 0 mm 4 mps 729 mmHg 63%
    13:00 +22°C° 0 mm 4 mps 728 mmHg 64%
    14:00 +22°C° 0 mm 4 mps 728 mmHg 66%
    15:00 +21°C° 0 mm 4 mps 728 mmHg 68%
    16:00 +20°C° 0 mm 4 mps 727 mmHg 75%
    17:00 +19°C° 0 mm 3 mps 727 mmHg 81%
    18:00 +18°C° 0 mm 3 mps 727 mmHg 87%
    19:00 +17°C° 0 mm 3 mps 727 mmHg 86%
    20:00 +17°C° 0 mm 3 mps 727 mmHg 85%
    21:00 +17°C° 0 mm 3 mps 727 mmHg 83%
    22:00 +17°C° 0 mm 3 mps 726 mmHg 81%
    23:00 +17°C° 0 mm 3 mps 726 mmHg 79%

    29 September, Saturday

    Time Temperature Precipitation Wind Pressure Humidity
    00:00 +17°C° 0 mm 3 mps 725 mmHg 77%
    01:00 +16°C° 0 mm 3 mps 725 mmHg 76%
    02:00 +16°C° 0 mm 2 mps 725 mmHg 75%
    03:00 +16°C° 0 mm 2 mps 724 mmHg 74%
    04:00 +16°C° 0 mm 2 mps 724 mmHg 72%
    05:00 +16°C° 0 mm 2 mps 724 mmHg 70%
    06:00 +16°C° 0 mm 2 mps 724 mmHg 67%
    07:00 +19°C° 0 mm 2 mps 724 mmHg 60%
    08:00 +21°C° 0 mm 2 mps 724 mmHg 53%
    09:00 +25°C° 0 mm 2 mps 724 mmHg 47%
    10:00 +26°C° 0 mm 2 mps 723 mmHg 46%
    11:00 +27°C° 0 mm 2 mps 723 mmHg 45%
    12:00 +28°C° 0 mm 3 mps 723 mmHg 44%
    13:00 +27°C° 0 mm 2 mps 722 mmHg 46%
    14:00 +27°C° 0 mm 2 mps 722 mmHg 48%
    15:00 +27°C° 0 mm 2 mps 722 mmHg 51%
    16:00 +25°C° 0 mm 2 mps 722 mmHg 60%
    17:00 +23°C° 0 mm 1 mps 721 mmHg 69%
    18:00 +21°C° 0 mm 1 mps 721 mmHg 78%
    19:00 +21°C° 0 mm 1 mps 722 mmHg 75%
    20:00 +21°C° 0 mm 1 mps 722 mmHg 72%
    21:00 +21°C° 0 mm 1 mps 722 mmHg 69%
    22:00 +21°C° 0 mm 1 mps 722 mmHg 67%
    23:00 +21°C° 0 mm 1 mps 722 mmHg 64%

    30 September, Sunday

    Time Temperature Precipitation Wind Pressure Humidity
    00:00 +21°C° 0 mm 1 mps 721 mmHg 62%
    01:00 +21°C° 0 mm 1 mps 721 mmHg 59%
    02:00 +21°C° 0 mm 1 mps 721 mmHg 56%
    03:00 +20°C° 0 mm 2 mps 721 mmHg 52%
    04:00 +21°C° 0 mm 1 mps 721 mmHg 50%
    05:00 +20°C° 0 mm 1 mps 721 mmHg 47%
    06:00 +20°C° 0 mm 1 mps 721 mmHg 45%
    07:00 +23°C° 0 mm 1 mps 721 mmHg 42%
    08:00 +25°C° 0 mm 1 mps 722 mmHg 39%
    09:00 +27°C° 0 mm 1 mps 722 mmHg 37%
    10:00 +28°C° 0 mm 2 mps 722 mmHg 37%
    11:00 +29°C° 0 mm 2 mps 721 mmHg 38%
    12:00 +29°C° 0 mm 3 mps 721 mmHg 38%
    13:00 +29°C° 0 mm 3 mps 721 mmHg 42%
    14:00 +28°C° 0 mm 3 mps 721 mmHg 46%
    15:00 +28°C° 0 mm 3 mps 721 mmHg 50%
    16:00 +26°C° 0 mm 2 mps 721 mmHg 60%
    17:00 +24°C° 0 mm 1 mps 721 mmHg 70%
    18:00 +20°C° 0 mm 0 mps 721 mmHg 81%
    19:00 +21°C° 0 mm 1 mps 722 mmHg 79%
    20:00 +21°C° 0 mm 1 mps 722 mmHg 77%
    21:00 +21°C° 0 mm 1 mps 723 mmHg 76%
    22:00 +21°C° 0 mm 1 mps 723 mmHg 75%
    23:00 +21°C° 0 mm 1 mps 723 mmHg 75%

    1 October, Monday

    Time Temperature Precipitation Wind Pressure Humidity
    00:00 +21°C° 0 mm 1 mps 723 mmHg 74%
    01:00 +19°C° 0 mm 2 mps 723 mmHg 74%
    02:00 +19°C° 0 mm 2 mps 723 mmHg 74%
    03:00 +19°C° 0 mm 2 mps 723 mmHg 74%
    04:00 +19°C° 0 mm 2 mps 724 mmHg 75%
    05:00 +19°C° 0 mm 2 mps 724 mmHg 75%
    06:00 +18°C° 0 mm 2 mps 724 mmHg 75%
    07:00 +20°C° 0 mm 2 mps 724 mmHg 70%
    08:00 +23°C° 0 mm 2 mps 725 mmHg 64%
    09:00 +25°C° 0 mm 2 mps 725 mmHg 58%
    10:00 +26°C° 0 mm 3 mps 725 mmHg 57%
    11:00 +27°C° 0 mm 3 mps 725 mmHg 56%
    12:00 +27°C° 0 mm 3 mps 725 mmHg 55%
    13:00 +27°C° 0 mm 3 mps 725 mmHg 60%
    14:00 +26°C° 0 mm 3 mps 724 mmHg 64%
    15:00 +25°C° 0 mm 3 mps 724 mmHg 68%
    16:00 +24°C° 0 mm 2 mps 724 mmHg 75%
    17:00 +23°C° 0 mm 2 mps 724 mmHg 82%
    18:00 +22°C° 0 mm 1 mps 724 mmHg 88%
    19:00 +21°C° 0 mm 1 mps 724 mmHg 86%
    20:00 +21°C° 0 mm 1 mps 724 mmHg 83%
    21:00 +20°C° 0 mm 1 mps 725 mmHg 81%
    22:00 +20°C° 0 mm 1 mps 724 mmHg 77%
    23:00 +19°C° 0 mm 2 mps 724 mmHg 72%
    Show more